Location: Mahannah Oil Field
(37.4664°N, 96.6003°W)
Time: 02:04:11
(UTC+00:00)

A-11 Canister half - Pass Details

Date: 31 January 2021
Orbit: 1524 x 1684 km, 47.3° (Epoch: 25 February)

Event Time Altitude Azimuth Distance (km) Brightness Sun altitude
Rises 02:28:19 0° 300° (WNW) 4,755 12.4 -31.8°
Reaches altitude 10° 02:31:31 10° 294° (WNW) 3,789 11.8 -32.4°
Maximum altitude 02:40:29 45° 226° (SW) 2,094 9.8 -34.2°
Enters shadow 02:45:40 26° 171° (S) 2,807 10.2 -35.2°
Drops below altitude 10° 02:49:43 10° 158° (SSE) 3,893 - -36.0°
Sets 02:53:05 0° 152° (SSE) 4,894 - -36.7°
